Content
SEND FEEDBACK

Daily
Averages
Monthly
Summary
United States of America

COLUMBUS, NORTH DAKOTA


Home > North America > United States > North Dakota
Elevation: 1930 feet     Latitude: 48 54N     Longitude: 102 47W

WEATHER
 
SELECT A DAY
Number of Records: 180,261;   Date Range: 1/1/95 - 7/23/14
 
SHARE

PRINT THIS DATA

[ ← Previous Day ]
WEATHER ALMANAC - FEBRUARY 13, 2013
[ Next Day → ]
[ °C ]   °F
Weather ElementAverageHighLow
Temperature18.4 °F30.2 °F (4:00 pm) (8:22 am)
Dewpoint16.7 °F28.4 °F (9:00 pm) (7:00 pm)
Humidity90.2 %93 % (6:00 am)86 % (12:00 am)
Wind Speed7.2 mph20.7 mph (9:31 pm)
Weather ElementAverage
Visibility6.4 mi
Wind DirectionN (354.4 °)

Weather ElementTotal
Precipitation---
Heating Degree Days49.9 (Base 65)
Averaged from 40 records on February 13, 2013
WEATHER CONDITIONS BREAKOUT
WIND DIRECTION BREAKOUT
WEATHER BY HOUR - FEBRUARY 13, 2013
[ °C ]   °F
Local TimeTemperatureDewpointHumidityBarometerVisibilityWind DirectionWind SpeedGust SpeedPrecipitationEventsConditions
12:00 AM21.2 °F17.6 °F86 %29.81 in15.0 miWSW (250°)5.8 mphOvercast
1:00 AM23.0 °F19.4 °F86 %29.79 in15.0 miSW (230°)5.8 mphOvercast
2:00 AM24.8 °F21.2 °F86 %29.77 in15.0 miSW (220°)9.2 mphOvercast
3:00 AM24.8 °F21.2 °F86 %29.75 in15.0 miSW (230°)5.8 mphOvercast
4:00 AM26.6 °F23.0 °F86 %29.72 in15.0 miSW (220°)2.3 mphOvercast
5:00 AM26.6 °F23.0 °F86 %29.68 in15.0 miSSE (150°)4.6 mphSnowLight Snow
6:00 AM26.0 °F24.0 °F90 %29.66 in15.0 miSouth (180°)5.8 mphSnowLight Snow
6:00 AM26.6 °F24.8 °F93 %29.66 in15.0 miSouth (180°)5.8 mphSnowLight Snow
7:00 AM26.6 °F24.8 °F93 %29.65 in2.5 miSW (220°)8.1 mphSnowLight Snow
8:00 AM28.4 °F26.6 °F93 %29.65 in1.5 miSW (230°)5.8 mphSnowLight Snow
8:22 AM0.0 °F0.0 °F3.0 miWSW (240°)4.6 mph
9:00 AM28.4 °F26.6 °F93 %29.65 in4.0 miWSW (250°)4.6 mphSnowLight Snow
10:00 AM28.4 °F26.6 °F93 %29.66 in10.0 miNNW (340°)8.1 mphSnowLight Snow
10:38 AM0.0 °F0.0 °F4.0 miNNW (340°)6.9 mphRainLight Freezing Rain
11:00 AM28.4 °F26.6 °F93 %29.69 in1.0 miNorth (10°)8.1 mphSnowLight Snow
11:22 AM0.0 °F0.0 °F2.0 miNorth (360°)5.8 mph
12:00 PM26.0 °F24.0 °F86 %29.72 in10.0 miNorth (350°)3.5 mphSnowLight Snow
12:00 PM26.6 °F23.0 °F86 %29.72 in10.0 miNorth (350°)3.5 mphSnowLight Snow
12:51 PM0.0 °F0.0 °F12.0 miNorth (350°)3.5 mphMostly Cloudy
1:00 PM26.6 °F24.8 °F93 %29.73 in15.0 miWNW (300°)3.5 mphMostly Cloudy
2:00 PM28.4 °F24.8 °F86 %29.74 in15.0 miWest (270°)8.1 mphOvercast
2:31 PM0.0 °F0.0 °F6.0 miWNW (290°)8.1 mph
2:43 PM0.0 °F0.0 °F1.0 miWNW (290°)8.1 mph
3:00 PM28.4 °F26.6 °F93 %29.75 in1.0 miWNW (300°)6.9 mphSnowLight Snow
3:03 PM0.0 °F0.0 °F0.0 mi8.1 (2013°)300
3:23 PM0.0 °F0.0 °F1.5 miNW (310°)5.8 mph
3:31 PM0.0 °F0.0 °F4.0 miNW (310°)5.8 mph
4:00 PM30.2 °F26.6 °F86 %29.76 in5.0 miNW (310°)4.6 mphSnowLight Snow
5:00 PM28.4 °F26.6 °F93 %29.78 in1.0 miWNW (290°)9.2 mphSnowLight Snow
5:04 PM0.0 °F0.0 °F1.5 miWNW (300°)11.5 mph
5:36 PM0.0 °F0.0 °F0.0 mi9.2 (2013°)300
5:44 PM0.0 °F0.0 °F1.5 miWNW (300°)9.2 mph
6:00 PM28.0 °F26.0 °F90 %29.79 in3.0 miWNW (290°)5.8 mphSnowLight Snow
6:00 PM28.4 °F26.6 °F93 %29.79 in3.0 miWNW (290°)6.9 mphSnowLight Snow
7:00 PM28.4 °F26.6 °F93 %29.79 in3.0 miWest (260°)3.5 mphSnowLight Snow
8:00 PM28.4 °F26.6 °F93 %29.79 in5.0 miWSW (250°)3.5 mphSnowLight Snow
9:00 PM30.2 °F28.4 °F93 %29.78 in4.0 miSW (220°)4.6 mphSnowLight Snow
9:31 PM0.0 °F0.0 °F1.5 miWNW (290°)20.7 mph
10:00 PM28.4 °F26.6 °F93 %29.79 in1.5 miWNW (290°)20.7 mphSnowLight Snow
11:00 PM28.4 °F26.6 °F93 %29.80 in2.0 miWNW (290°)18.4 mphSnowLight Snow
Hourly data recorded from CYEN, located miles away from Columbus, North Dakota







STORIES FROM OUR PARTNERS